When you browse on this site, cookies collect data to enhance your experience and personalize the content and advertising you see.
Visit our Privacy Policy to learn more. By continuing to use the site, you agree to this use of cookies and data.
  • In Hungary
  • List of Countries
  • For 7 days
  • Water Temperature
  • Weather Map
  • News
  • Weather Widgets
  • user-avatar
    Login

    Hourly Weather Novyy Gorodok

    Today, 24 February, Monday

    Time Temperature Precipitation Wind Pressure Humidity
    00:00 -6°C° 0.2 mm 7 mps 752 mmHg 94%
    01:00 -6°C° 0.2 mm 7 mps 751 mmHg 94%
    02:00 -6°C° 0.2 mm 7 mps 750 mmHg 94%
    03:00 -4°C° 0 mm 6 mps 749 mmHg 94%
    04:00 -4°C° 0.3 mm 6 mps 748 mmHg 95%
    05:00 -3°C° 0.3 mm 6 mps 748 mmHg 96%
    06:00 -3°C° 0.3 mm 6 mps 747 mmHg 97%
    07:00 -3°C° 0.3 mm 6 mps 747 mmHg 97%
    08:00 -3°C° 0.3 mm 6 mps 747 mmHg 97%
    09:00 -3°C° 0.3 mm 6 mps 747 mmHg 96%
    10:00 -2°C° 0.3 mm 5 mps 747 mmHg 97%
    11:00 -2°C° 0.3 mm 5 mps 747 mmHg 98%
    12:00 -1°C° 0.3 mm 4 mps 747 mmHg 99%
    13:00 -1°C° 0 mm 4 mps 748 mmHg 99%
    14:00 0°C° 0 mm 3 mps 748 mmHg 99%
    15:00 +1°C° 0 mm 2 mps 748 mmHg 99%
    16:00 -1°C° 0 mm 3 mps 748 mmHg 98%
    17:00 -2°C° 0 mm 3 mps 749 mmHg 97%
    18:00 -4°C° 0 mm 3 mps 749 mmHg 96%
    19:00 -4°C° 0 mm 3 mps 749 mmHg 96%
    20:00 -2°C° 0 mm 3 mps 749 mmHg 96%
    21:00 -2°C° 0 mm 4 mps 750 mmHg 95%
    22:00 -1°C° 0 mm 3 mps 749 mmHg 95%
    23:00 -1°C° 0 mm 3 mps 749 mmHg 95%

    Tomorrow, 25 February, Tuesday

    Time Temperature Precipitation Wind Pressure Humidity
    00:00 -1°C° 0 mm 2 mps 749 mmHg 95%
    01:00 -1°C° 0.1 mm 3 mps 749 mmHg 96%
    02:00 -2°C° 0.1 mm 4 mps 749 mmHg 97%
    03:00 -1°C° 0.1 mm 4 mps 749 mmHg 98%
    04:00 -1°C° 0.2 mm 4 mps 748 mmHg 98%
    05:00 -1°C° 0.2 mm 4 mps 748 mmHg 98%
    06:00 -1°C° 0.2 mm 5 mps 748 mmHg 99%
    07:00 -1°C° 0.2 mm 5 mps 747 mmHg 99%
    08:00 -1°C° 0.2 mm 5 mps 747 mmHg 99%
    09:00 -2°C° 0.2 mm 6 mps 747 mmHg 99%
    10:00 -2°C° 0.8 mm 6 mps 746 mmHg 99%
    11:00 -2°C° 0.8 mm 6 mps 746 mmHg 99%
    12:00 -2°C° 0.8 mm 7 mps 745 mmHg 99%
    13:00 -2°C° 0.9 mm 7 mps 745 mmHg 99%
    14:00 -2°C° 0.9 mm 7 mps 744 mmHg 98%
    15:00 -2°C° 0.9 mm 7 mps 744 mmHg 98%
    16:00 -2°C° 1.5 mm 6 mps 743 mmHg 98%
    17:00 -1°C° 1.5 mm 5 mps 743 mmHg 98%
    18:00 -1°C° 1.5 mm 5 mps 743 mmHg 98%
    19:00 -1°C° 1.3 mm 4 mps 742 mmHg 98%
    20:00 0°C° 1.3 mm 3 mps 742 mmHg 98%
    21:00 +1°C° 1.3 mm 2 mps 741 mmHg 98%
    22:00 +1°C° 0.2 mm 2 mps 741 mmHg 98%
    23:00 -1°C° 0.2 mm 2 mps 740 mmHg 98%

    Day after tomorrow, 26 February, Wednesday

    Time Temperature Precipitation Wind Pressure Humidity
    00:00 -1°C° 0.2 mm 2 mps 740 mmHg 98%
    01:00 -1°C° 0.2 mm 2 mps 740 mmHg 98%
    02:00 -1°C° 0.2 mm 2 mps 740 mmHg 98%
    03:00 -1°C° 0.2 mm 2 mps 741 mmHg 98%
    04:00 -2°C° 0.3 mm 5 mps 741 mmHg 96%
    05:00 -4°C° 0.3 mm 7 mps 742 mmHg 94%
    06:00 -6°C° 0.3 mm 9 mps 742 mmHg 91%
    07:00 -6°C° 0 mm 9 mps 743 mmHg 89%
    08:00 -8°C° 0 mm 9 mps 744 mmHg 87%
    09:00 -8°C° 0 mm 8 mps 745 mmHg 85%
    10:00 -7°C° 0 mm 8 mps 746 mmHg 85%
    11:00 -7°C° 0 mm 8 mps 746 mmHg 84%
    12:00 -6°C° 0 mm 7 mps 747 mmHg 83%
    13:00 -5°C° 0 mm 6 mps 748 mmHg 84%
    14:00 -5°C° 0 mm 5 mps 748 mmHg 84%
    15:00 -5°C° 0 mm 5 mps 749 mmHg 84%
    16:00 -5°C° 0 mm 4 mps 749 mmHg 85%
    17:00 -6°C° 0 mm 3 mps 750 mmHg 86%
    18:00 -7°C° 0 mm 3 mps 750 mmHg 87%
    19:00 -7°C° 0 mm 3 mps 750 mmHg 88%
    20:00 -7°C° 0 mm 3 mps 751 mmHg 89%
    21:00 -7°C° 0 mm 3 mps 751 mmHg 90%
    22:00 -7°C° 0 mm 3 mps 751 mmHg 91%
    23:00 -7°C° 0 mm 4 mps 751 mmHg 92%

    27 February, Thursday

    Time Temperature Precipitation Wind Pressure Humidity
    00:00 -5°C° 0 mm 4 mps 751 mmHg 92%
    01:00 -4°C° 0.1 mm 4 mps 751 mmHg 94%
    02:00 -4°C° 0.1 mm 5 mps 751 mmHg 95%
    03:00 -2°C° 0.1 mm 5 mps 751 mmHg 97%
    04:00 -1°C° 0.1 mm 5 mps 751 mmHg 97%
    05:00 -2°C° 0.1 mm 6 mps 750 mmHg 98%
    06:00 -1°C° 0.1 mm 6 mps 750 mmHg 99%
    07:00 -1°C° 0.1 mm 5 mps 751 mmHg 99%
    08:00 -1°C° 0.1 mm 5 mps 751 mmHg 99%
    09:00 -1°C° 0.1 mm 5 mps 751 mmHg 99%
    10:00 -1°C° 0 mm 5 mps 751 mmHg 97%
    11:00 -2°C° 0 mm 6 mps 752 mmHg 95%
    12:00 -2°C° 0 mm 6 mps 752 mmHg 93%
    13:00 -2°C° 0 mm 6 mps 752 mmHg 90%
    14:00 -1°C° 0 mm 6 mps 752 mmHg 87%
    15:00 -1°C° 0 mm 7 mps 752 mmHg 85%
    16:00 -1°C° 0 mm 6 mps 752 mmHg 84%
    17:00 -2°C° 0 mm 6 mps 752 mmHg 83%
    18:00 -2°C° 0 mm 6 mps 751 mmHg 83%
    19:00 -1°C° 0 mm 6 mps 752 mmHg 85%
    20:00 -1°C° 0 mm 6 mps 752 mmHg 88%
    21:00 -1°C° 0 mm 7 mps 752 mmHg 90%
    22:00 -1°C° 0 mm 7 mps 751 mmHg 90%
    23:00 -1°C° 0 mm 7 mps 751 mmHg 90%

    28 February, Friday

    Time Temperature Precipitation Wind Pressure Humidity
    00:00 -1°C° 0 mm 7 mps 751 mmHg 90%
    01:00 -1°C° 0 mm 7 mps 751 mmHg 92%
    02:00 -1°C° 0 mm 7 mps 751 mmHg 94%
    03:00 -1°C° 0 mm 7 mps 751 mmHg 96%
    04:00 -1°C° 0 mm 7 mps 751 mmHg 96%
    05:00 -1°C° 0 mm 6 mps 751 mmHg 97%
    06:00 -1°C° 0 mm 6 mps 751 mmHg 98%
    07:00 -1°C° 0 mm 6 mps 752 mmHg 98%
    08:00 -1°C° 0 mm 6 mps 752 mmHg 99%
    09:00 -1°C° 0 mm 6 mps 752 mmHg 99%
    10:00 -1°C° 0 mm 6 mps 752 mmHg 99%
    11:00 -1°C° 0 mm 6 mps 752 mmHg 99%
    12:00 -1°C° 0 mm 6 mps 752 mmHg 99%
    13:00 -1°C° 0 mm 7 mps 752 mmHg 95%
    14:00 -1°C° 0 mm 7 mps 752 mmHg 91%
    15:00 -1°C° 0 mm 7 mps 752 mmHg 86%
    16:00 -1°C° 0 mm 7 mps 752 mmHg 83%
    17:00 -1°C° 0 mm 7 mps 751 mmHg 81%
    18:00 -2°C° 0 mm 7 mps 751 mmHg 78%
    19:00 -1°C° 0 mm 8 mps 751 mmHg 77%
    20:00 -1°C° 0 mm 8 mps 751 mmHg 75%
    21:00 -1°C° 0 mm 8 mps 750 mmHg 74%
    22:00 -1°C° 0 mm 8 mps 750 mmHg 76%
    23:00 -1°C° 0 mm 8 mps 750 mmHg 77%

    29 February, Saturday

    Time Temperature Precipitation Wind Pressure Humidity
    00:00 -1°C° 0 mm 7 mps 749 mmHg 79%
    01:00 -2°C° 0 mm 8 mps 749 mmHg 79%
    02:00 -2°C° 0 mm 8 mps 749 mmHg 80%
    03:00 -2°C° 0 mm 8 mps 748 mmHg 81%
    04:00 -2°C° 0 mm 8 mps 748 mmHg 82%
    05:00 -2°C° 0 mm 7 mps 748 mmHg 83%
    06:00 -2°C° 0 mm 7 mps 748 mmHg 84%
    07:00 -2°C° 0.2 mm 7 mps 748 mmHg 88%
    08:00 -2°C° 0.2 mm 6 mps 748 mmHg 92%
    09:00 -2°C° 0.2 mm 6 mps 748 mmHg 96%
    10:00 -1°C° 0 mm 5 mps 749 mmHg 97%
    11:00 -1°C° 0 mm 4 mps 749 mmHg 98%
    12:00 -1°C° 0 mm 4 mps 750 mmHg 99%
    13:00 0°C° 0 mm 3 mps 750 mmHg 97%
    14:00 0°C° 0 mm 3 mps 750 mmHg 95%
    15:00 +1°C° 0 mm 2 mps 751 mmHg 94%
    16:00 -1°C° 0 mm 2 mps 751 mmHg 91%
    17:00 +1°C° 0 mm 1 mps 751 mmHg 89%
    18:00 0°C° 0 mm 1 mps 751 mmHg 86%
    19:00 -1°C° 0 mm 1 mps 751 mmHg 86%
    20:00 -1°C° 0 mm 1 mps 751 mmHg 86%
    21:00 -2°C° 0 mm 1 mps 751 mmHg 85%
    22:00 -2°C° 0 mm 1 mps 751 mmHg 85%
    23:00 -3°C° 0 mm 0 mps 751 mmHg 85%
    Show more